Overall — Kairos - Mini
Saturday 29 June 2024 · 62 finishers across every class · 4 laps for the winner
| Pos | No. | Rider | Class | Laps | Time | Behind | Int | Pace |
|---|---|---|---|---|---|---|---|---|
| 1 | #94A | MCCULLOUGH, RYLAND | SM 14-15 | 4 | 1:10:52 | — | 0:00 | 17:43 |
| 2 | #19A | CAWLEY, MASON | SM 14-15 | 4 | 1:14:10 | +3:18 | 3:18 | 18:32 |
| 3 | #47A | HARRISON, EVAN | SM 14-15 | 4 | 1:14:21 | +3:29 | 0:11 | 18:35 |
| 4 | #42B | LACY, JACK | SM 12-13 | 4 | 1:15:03 | +4:11 | 0:42 | 18:45 |
| 5 | #18A | EDMONDSON, TUCKER | SM 14-15 | 4 | 1:16:02 | +5:10 | 0:59 | 19:00 |
| 6 | #63B | WALTERS, DALTON | SM 12-13 | 4 | 1:17:47 | +6:55 | 1:45 | 19:26 |
| 7 | #42A | SCHLICKENMEYER, SEAN | SM 14-15 | 4 | 1:17:51 | +6:59 | 0:04 | 19:27 |
| 8 | #24C | OLEARY, NOLAN | MINI 12-13 | 4 | 1:18:43 | +7:51 | 0:52 | 19:40 |
| 9 | #88A | FORD, CHASE | SM 14-15 | 4 | 1:18:47 | +7:55 | 0:04 | 19:41 |
| 10 | #21C | WIGGINS, MADDIX | MINI 12-13 | 4 | 1:19:15 | +8:23 | 0:28 | 19:48 |
| 11 | #51B | RICE, DANE | SM 12-13 | 4 | 1:19:35 | +8:43 | 0:20 | 19:53 |
| 12 | #25B | HERTZLER, NOAH | SM 12-13 | 4 | 1:20:06 | +9:14 | 0:31 | 20:01 |
| 13 | #12D | BURKHOLDER, BRADLEY | MINI 9-11 | 4 | 1:21:40 | +10:48 | 1:34 | 20:25 |
| 14 | #14B | MOUNTS, RILEY | SM 12-13 | 4 | 1:21:42 | +10:50 | 0:02 | 20:25 |
| 15 | #42C | COLLINS, JAXON | MINI 12-13 | 4 | 1:22:13 | +11:21 | 0:31 | 20:33 |
| 16 | #50C | JOHNSON, LUCAS | MINI 12-13 | 4 | 1:22:18 | +11:26 | 0:05 | 20:34 |
| 17 | #25C | TORRES, TRISTIN | MINI 12-13 | 4 | 1:22:35 | +11:43 | 0:17 | 20:38 |
| 18 | #36A | FULCHER, THOMAS | SM 14-15 | 4 | 1:22:38 | +11:46 | 0:03 | 20:39 |
| 19 | #29C | NALLS, COLTON | MINI 12-13 | 4 | 1:22:39 | +11:47 | 0:01 | 20:39 |
| 20 | #5B | BAKKEN, DASH | SM 12-13 | 4 | 1:22:49 | +11:57 | 0:10 | 20:42 |
| 21 | #44B | GEARHART, CADENCE | SM 12-13 | 4 | 1:24:28 | +13:36 | 1:39 | 21:07 |
| 22 | #22B | BAKER, COHEN | SM 12-13 | 4 | 1:24:29 | +13:37 | 0:01 | 21:07 |
| 23 | #30A | OLEARY, ASHTON | SM 14-15 | 4 | 1:24:38 | +13:46 | 0:09 | 21:09 |
| 24 | #5C | MARKHAM, KASEN | MINI 12-13 | 4 | 1:26:43 | +15:51 | 2:05 | 21:40 |
| 25 | #31A | MOUNTS, HUNTER | SM 14-15 | 4 | 1:27:51 | +16:59 | 1:08 | 21:57 |
| 26 | #52B | FOUTZ, KELLEN | SM 12-13 | 4 | 1:31:35 | +20:43 | 3:44 | 22:53 |
| 27 | #1K | DOMAN, HAYDEN | MINI 9-11K | 3 | 1:07:48 | 1 lap | 0:00 | 22:36 |
| 28 | #2E | HARDMAN, SAVANNAH | SM WOMEN | 3 | 1:08:47 | 1 lap | 0:59 | 22:55 |
| 29 | #40K | WINN, ADDISON | MINI 9-11K | 3 | 1:10:38 | 1 lap | 1:51 | 23:32 |
| 30 | #11B | TYREE, JESSE | SM 12-13 | 3 | 1:11:48 | 1 lap | 1:10 | 23:56 |
| 31 | #96D | MARKHAM, GUNNER | MINI 9-11 | 3 | 1:12:14 | 1 lap | 0:26 | 24:04 |
| 32 | #7K | RUSSELL, TY | MINI 9-11K | 3 | 1:13:00 | 1 lap | 0:46 | 24:20 |
| 33 | #33C | LILLY, RYDER | MINI 12-13 | 3 | 1:13:47 | 1 lap | 0:47 | 24:35 |
| 34 | #13E | NICHOLS, ELLA | SM WOMEN | 3 | 1:14:38 | 1 lap | 0:51 | 24:52 |
| 35 | #10E | PANCAKE, LILLIAN | SM WOMEN | 3 | 1:15:12 | 1 lap | 0:34 | 25:04 |
| 36 | #69D | LILLY, COLE | MINI 9-11 | 3 | 1:15:46 | 1 lap | 0:34 | 25:15 |
| 37 | #12A | SHANNON, PARKER | SM 14-15 | 3 | 1:15:51 | 1 lap | 0:05 | 25:17 |
| 38 | #52A | REYNOLDS, LUCAS | SM 14-15 | 3 | 1:16:11 | 1 lap | 0:20 | 25:23 |
| 39 | #51K | RICE, HOLTON | MINI 9-11K | 3 | 1:16:46 | 1 lap | 0:35 | 25:35 |
| 40 | #26D | LILLY, WYATT | MINI 9-11 | 3 | 1:17:48 | 1 lap | 1:02 | 25:56 |
| 41 | #57K | WARREN, MASON | MINI 9-11K | 3 | 1:18:10 | 1 lap | 0:22 | 26:03 |
| 42 | #11A | SENTERS, ZEKE | SM 14-15 | 3 | 1:18:35 | 1 lap | 0:25 | 26:11 |
| 43 | #24E | WINGO, BELLA | SM WOMEN | 3 | 1:19:42 | 1 lap | 1:07 | 26:34 |
| 44 | #35D | SULLINS, SAMMY | MINI 9-11 | 3 | 1:20:44 | 1 lap | 1:02 | 26:54 |
| 45 | #8E | PANCAKE, DELILAH | SM WOMEN | 3 | 1:21:17 | 1 lap | 0:33 | 27:05 |
| 46 | #27K | MARSH, RYDER | MINI 9-11K | 3 | 1:21:44 | 1 lap | 0:27 | 27:14 |
| 47 | #30C | FAIN, JACKSON | MINI 12-13 | 3 | 1:22:18 | 1 lap | 0:34 | 27:26 |
| 48 | #8K | MUTER, MAX | MINI 9-11K | 3 | 1:22:44 | 1 lap | 0:26 | 27:34 |
| 49 | #67E | BONANNO, ANGELINA | SM WOMEN | 3 | 1:24:48 | 1 lap | 2:04 | 28:16 |
| 50 | #10K | LAMB, BRANTLEY | MINI 9-11K | 3 | 1:26:04 | 1 lap | 1:16 | 28:41 |
| 51 | #74K | LOVE, CONNER | MINI 9-11K | 3 | 1:27:40 | 1 lap | 1:36 | 29:13 |
| 52 | #4C | KERN, QUENTIN | MINI 12-13 | 3 | 1:28:09 | 1 lap | 0:29 | 29:23 |
| 53 | #95E | MCKEITHAN, SAMANTHA | SM WOMEN | 3 | 1:34:54 | 1 lap | 6:45 | 31:38 |
| 54 | #99B | RAFFERTY, LUKE | SM 12-13 | 3 | 1:36:59 | 1 lap | 2:05 | 32:19 |
| 55 | #99K | WEST, WALKER | MINI 9-11K | 3 | 1:42:13 | 1 lap | 5:14 | 34:04 |
| 56 | #48E | LANDRUM, KINLEY | SM WOMEN | 3 | 1:44:50 | 1 lap | 2:37 | 34:56 |
| 57 | #2K | MEAD, RYLAN | MINI 9-11K | 2 | 1:07:45 | 2 laps | 0:00 | 33:52 |
| 58 | #77K | LAMB, BRYSON | MINI 9-11K | 2 | 1:10:46 | 2 laps | 3:01 | 35:23 |
| 59 | #22K | BAKER, CAMDEN | MINI 9-11K | 2 | 1:15:48 | 2 laps | 5:02 | 37:54 |
| 60 | #77G | ROBERTSON, BRANDI | TRL WOMEN | 2 | 1:30:11 | 2 laps | 14:23 | 45:05 |
| 61 | #21A | COUVILLION, BRAIDYN | SM 14-15 | 1 | 26:34 | 3 laps | 0:00 | 26:34 |
| 62 | #38K | GALFORD, BRADLEY | MINI 9-11K | 1 | 38:16 | 3 laps | 11:42 | 38:16 |
Ranked the way the series ranks: most laps first, then least time. Behind is the deficit to the winner and is only shown where the lap count matches, because elapsed time says nothing across different lap counts — a rider a lap down shows the laps instead. Int is the gap to the rider immediately ahead.